Time,TemperatureF,DewpointF,PressureIn,WindDirection,WindDirectionDegrees,WindSpeedMPH,WindSpeedGustMPH,Humidity,HourlyPrecipIn,Conditions,Clouds,dailyrainin,SoftwareType,DateUTC
2013-03-14 00:02:00,28.0,-99.9,-100.00,WNW,291,12.0,18.0,-999,-99.99,,,-99.99,,2013-03-14 06:02:00,
2013-03-14 00:12:00,28.0,-99.9,-100.00,WNW,291,12.0,18.0,-999,-99.99,,,-99.99,,2013-03-14 06:12:00,
2013-03-14 00:22:00,28.0,-99.9,-100.00,West,278,13.0,19.0,-999,-99.99,,,-99.99,,2013-03-14 06:22:00,
2013-03-14 00:33:00,27.0,-99.9,-100.00,West,280,12.0,18.0,-999,-99.99,,,-99.99,,2013-03-14 06:33:00,
2013-03-14 00:42:00,27.0,-99.9,-100.00,West,280,12.0,18.0,-999,-99.99,,,-99.99,,2013-03-14 06:42:00,
2013-03-14 00:52:00,27.0,-99.9,-100.00,WNW,301,13.0,18.0,-999,-99.99,,,-99.99,,2013-03-14 06:52:00,
2013-03-14 01:02:00,27.0,-99.9,-100.00,WNW,300,11.0,15.0,-999,-99.99,,,-99.99,,2013-03-14 07:02:00,
2013-03-14 01:12:00,27.0,-99.9,-100.00,WNW,300,11.0,15.0,-999,-99.99,,,-99.99,,2013-03-14 07:12:00,
2013-03-14 01:22:00,28.0,-99.9,-100.00,WNW,293,13.0,18.0,-999,-99.99,,,-99.99,,2013-03-14 07:22:00,
2013-03-14 01:32:00,28.0,-99.9,-100.00,WNW,282,16.0,21.0,-999,-99.99,,,-99.99,,2013-03-14 07:32:00,
2013-03-14 01:43:00,28.0,-99.9,-100.00,WNW,282,16.0,21.0,-999,-99.99,,,-99.99,,2013-03-14 07:43:00,
2013-03-14 01:52:00,28.0,-99.9,-100.00,WNW,286,18.0,26.0,-999,-99.99,,,-99.99,,2013-03-14 07:52:00,
2013-03-14 02:02:00,28.0,-99.9,-100.00,WNW,284,19.0,29.0,-999,-99.99,,,-99.99,,2013-03-14 08:02:00,
2013-03-14 02:12:00,28.0,-99.9,-100.00,WNW,284,19.0,29.0,-999,-99.99,,,-99.99,,2013-03-14 08:12:00,
2013-03-14 02:22:00,28.0,-99.9,-100.00,WNW,288,17.0,26.0,-999,-99.99,,,-99.99,,2013-03-14 08:22:00,
2013-03-14 02:32:00,28.0,-99.9,-100.00,West,280,17.0,29.0,-999,-99.99,,,-99.99,,2013-03-14 08:32:00,
2013-03-14 02:42:00,28.0,-99.9,-100.00,West,280,17.0,29.0,-999,-99.99,,,-99.99,,2013-03-14 08:42:00,
2013-03-14 02:52:00,28.0,-99.9,-100.00,WNW,294,16.0,25.0,-999,-99.99,,,-99.99,,2013-03-14 08:52:00,
2013-03-14 03:02:00,28.0,-99.9,-100.00,WNW,301,16.0,25.0,-999,-99.99,,,-99.99,,2013-03-14 09:02:00,
2013-03-14 03:12:00,28.0,-99.9,-100.00,WNW,301,16.0,25.0,-999,-99.99,,,-99.99,,2013-03-14 09:12:00,
2013-03-14 03:22:00,29.0,-99.9,-100.00,WNW,293,17.0,28.0,-999,-99.99,,,-99.99,,2013-03-14 09:22:00,
2013-03-14 03:32:00,28.0,-99.9,-100.00,WNW,294,17.0,25.0,-999,-99.99,,,-99.99,,2013-03-14 09:32:00,
2013-03-14 03:42:00,28.0,-99.9,-100.00,WNW,294,17.0,25.0,-999,-99.99,,,-99.99,,2013-03-14 09:42:00,
2013-03-14 03:52:00,28.0,-99.9,-100.00,WNW,295,16.0,25.0,-999,-99.99,,,-99.99,,2013-03-14 09:52:00,
2013-03-14 04:02:00,28.0,-99.9,-100.00,WNW,293,14.0,22.0,-999,-99.99,,,-99.99,,2013-03-14 10:02:00,
2013-03-14 04:12:00,28.0,-99.9,-100.00,WNW,293,14.0,22.0,-999,-99.99,,,-99.99,,2013-03-14 10:12:00,
2013-03-14 04:22:00,28.0,-99.9,-100.00,WNW,292,16.0,25.0,-999,-99.99,,,-99.99,,2013-03-14 10:22:00,
2013-03-14 04:32:00,28.0,-99.9,-100.00,WNW,298,13.0,21.0,-999,-99.99,,,-99.99,,2013-03-14 10:32:00,
2013-03-14 04:42:00,28.0,-99.9,-100.00,WNW,298,13.0,21.0,-999,-99.99,,,-99.99,,2013-03-14 10:42:00,
2013-03-14 04:52:00,28.0,-99.9,-100.00,WNW,295,15.0,21.0,-999,-99.99,,,-99.99,,2013-03-14 10:52:00,
2013-03-14 05:02:00,28.0,-99.9,-100.00,WNW,300,16.0,24.0,-999,-99.99,,,-99.99,,2013-03-14 11:02:00,
2013-03-14 05:12:00,28.0,-99.9,-100.00,WNW,300,16.0,24.0,-999,-99.99,,,-99.99,,2013-03-14 11:12:00,
2013-03-14 05:22:00,28.0,-99.9,-100.00,WNW,288,15.0,22.0,-999,-99.99,,,-99.99,,2013-03-14 11:22:00,
2013-03-14 05:33:00,29.0,-99.9,-100.00,WNW,294,16.0,25.0,-999,-99.99,,,-99.99,,2013-03-14 11:33:00,
2013-03-14 05:42:00,29.0,-99.9,-100.00,WNW,294,16.0,25.0,-999,-99.99,,,-99.99,,2013-03-14 11:42:00,
2013-03-14 05:53:00,28.0,-99.9,-100.00,WNW,286,15.0,24.0,-999,-99.99,,,-99.99,,2013-03-14 11:53:00,
2013-03-14 06:02:00,28.0,-99.9,-100.00,WNW,291,13.0,22.0,-999,-99.99,,,-99.99,,2013-03-14 12:02:00,
2013-03-14 06:12:00,28.0,-99.9,-100.00,WNW,291,13.0,22.0,-999,-99.99,,,-99.99,,2013-03-14 12:12:00,
2013-03-14 06:22:00,28.0,-99.9,-100.00,WNW,294,10.0,15.0,-999,-99.99,,,-99.99,,2013-03-14 12:22:00,
2013-03-14 06:33:00,28.0,-99.9,-100.00,WNW,285,10.0,16.0,-999,-99.99,,,-99.99,,2013-03-14 12:33:00,
2013-03-14 06:43:00,28.0,-99.9,-100.00,WNW,285,10.0,16.0,-999,-99.99,,,-99.99,,2013-03-14 12:43:00,
2013-03-14 06:52:00,28.0,-99.9,-100.00,WNW,291,10.0,15.0,-999,-99.99,,,-99.99,,2013-03-14 12:52:00,
2013-03-14 07:03:00,28.0,-99.9,-100.00,West,279,10.0,16.0,-999,-99.99,,,-99.99,,2013-03-14 13:03:00,
2013-03-14 07:13:00,28.0,-99.9,-100.00,West,279,10.0,16.0,-999,-99.99,,,-99.99,,2013-03-14 13:13:00,
2013-03-14 07:22:00,28.0,-99.9,-100.00,WNW,288,9.0,12.0,-999,-99.99,,,-99.99,,2013-03-14 13:22:00,
2013-03-14 07:32:00,27.0,-99.9,-100.00,WNW,295,8.0,12.0,-999,-99.99,,,-99.99,,2013-03-14 13:32:00,
2013-03-14 07:43:00,27.0,-99.9,-100.00,WNW,295,8.0,12.0,-999,-99.99,,,-99.99,,2013-03-14 13:43:00,
2013-03-14 07:53:00,28.0,-99.9,-100.00,West,265,12.0,18.0,-999,-99.99,,,-99.99,,2013-03-14 13:53:00,
2013-03-14 08:02:00,28.0,-99.9,-100.00,West,272,12.0,16.0,-999,-99.99,,,-99.99,,2013-03-14 14:02:00,
2013-03-14 08:12:00,28.0,-99.9,-100.00,West,272,12.0,16.0,-999,-99.99,,,-99.99,,2013-03-14 14:12:00,
2013-03-14 08:22:00,28.0,-99.9,-100.00,WSW,256,10.0,15.0,-999,-99.99,,,-99.99,,2013-03-14 14:22:00,
2013-03-14 08:32:00,27.0,-99.9,-100.00,WSW,257,7.0,11.0,-999,-99.99,,,-99.99,,2013-03-14 14:32:00,
2013-03-14 08:43:00,27.0,-99.9,-100.00,WSW,257,7.0,11.0,-999,-99.99,,,-99.99,,2013-03-14 14:43:00,
2013-03-14 08:53:00,27.0,-99.9,-100.00,WSW,244,6.0,9.0,-999,-99.99,,,-99.99,,2013-03-14 14:53:00,
2013-03-14 09:02:00,28.0,-99.9,-100.00,SW,229,7.0,14.0,-999,-99.99,,,-99.99,,2013-03-14 15:02:00,
2013-03-14 09:12:00,28.0,-99.9,-100.00,SW,229,7.0,14.0,-999,-99.99,,,-99.99,,2013-03-14 15:12:00,
2013-03-14 09:22:00,29.0,-99.9,-100.00,WSW,247,8.0,12.0,-999,-99.99,,,-99.99,,2013-03-14 15:22:00,
2013-03-14 09:33:00,29.0,-99.9,-100.00,WSW,247,8.0,12.0,-999,-99.99,,,-99.99,,2013-03-14 15:33:00,
2013-03-14 09:43:00,29.0,-99.9,-100.00,WSW,247,8.0,12.0,-999,-99.99,,,-99.99,,2013-03-14 15:43:00,
2013-03-14 11:03:00,32.0,-99.9,-100.00,West,260,7.0,11.0,-999,-99.99,,,-99.99,,2013-03-14 17:03:00,
2013-03-14 11:13:00,32.0,-99.9,-100.00,West,260,7.0,11.0,-999,-99.99,,,-99.99,,2013-03-14 17:13:00,
2013-03-14 11:24:00,35.0,-99.9,-100.00,WSW,241,6.0,11.0,-999,-99.99,,,-99.99,,2013-03-14 17:24:00,
2013-03-14 11:33:00,33.0,-99.9,-100.00,WSW,244,8.0,14.0,-999,-99.99,,,-99.99,,2013-03-14 17:33:00,
2013-03-14 11:42:00,33.0,-99.9,-100.00,WSW,244,8.0,14.0,-999,-99.99,,,-99.99,,2013-03-14 17:42:00,
2013-03-14 11:53:00,35.0,-99.9,-100.00,SW,236,8.0,15.0,-999,-99.99,,,-99.99,,2013-03-14 17:53:00,
2013-03-14 12:03:00,35.0,-99.9,-100.00,WSW,255,8.0,15.0,-999,-99.99,,,-99.99,,2013-03-14 18:03:00,
2013-03-14 12:13:00,35.0,-99.9,-100.00,WSW,255,8.0,15.0,-999,-99.99,,,-99.99,,2013-03-14 18:13:00,
2013-03-14 12:23:00,34.0,-99.9,-100.00,West,259,9.0,15.0,-999,-99.99,,,-99.99,,2013-03-14 18:23:00,
2013-03-14 12:33:00,35.0,-99.9,-100.00,West,259,9.0,15.0,-999,-99.99,,,-99.99,,2013-03-14 18:33:00,
2013-03-14 12:43:00,35.0,-99.9,-100.00,West,259,9.0,15.0,-999,-99.99,,,-99.99,,2013-03-14 18:43:00,
2013-03-14 12:53:00,38.0,-99.9,-100.00,WSW,255,7.0,12.0,-999,-99.99,,,-99.99,,2013-03-14 18:53:00,
2013-03-14 13:03:00,38.0,-99.9,-100.00,West,261,10.0,16.0,-999,-99.99,,,-99.99,,2013-03-14 19:03:00,
2013-03-14 13:12:00,38.0,-99.9,-100.00,West,261,10.0,16.0,-999,-99.99,,,-99.99,,2013-03-14 19:12:00,
2013-03-14 13:23:00,39.0,-99.9,-100.00,SW,219,8.0,15.0,-999,-99.99,,,-99.99,,2013-03-14 19:23:00,
2013-03-14 13:32:00,39.0,-99.9,-100.00,SW,219,8.0,15.0,-999,-99.99,,,-99.99,,2013-03-14 19:32:00,
2013-03-14 13:43:00,39.0,-99.9,-100.00,SW,219,8.0,15.0,-999,-99.99,,,-99.99,,2013-03-14 19:43:00,
2013-03-14 14:32:00,38.0,-99.9,-100.00,WSW,240,10.0,16.0,-999,-99.99,,,-99.99,,2013-03-14 20:32:00,
2013-03-14 14:43:00,38.0,-99.9,-100.00,WSW,240,10.0,16.0,-999,-99.99,,,-99.99,,2013-03-14 20:43:00,
2013-03-14 14:53:00,37.0,-99.9,-100.00,WSW,253,9.0,16.0,-999,-99.99,,,-99.99,,2013-03-14 20:53:00,
2013-03-14 15:03:00,40.0,-99.9,-100.00,WSW,248,10.0,16.0,-999,-99.99,,,-99.99,,2013-03-14 21:03:00,
2013-03-14 15:13:00,40.0,-99.9,-100.00,WSW,248,10.0,16.0,-999,-99.99,,,-99.99,,2013-03-14 21:13:00,
2013-03-14 15:23:00,37.0,-99.9,-100.00,West,264,7.0,12.0,-999,-99.99,,,-99.99,,2013-03-14 21:23:00,
2013-03-14 15:33:00,39.0,-99.9,-100.00,West,268,8.0,12.0,-999,-99.99,,,-99.99,,2013-03-14 21:33:00,
2013-03-14 15:44:00,39.0,-99.9,-100.00,West,268,8.0,12.0,-999,-99.99,,,-99.99,,2013-03-14 21:44:00,
2013-03-14 15:53:00,38.0,-99.9,-100.00,WSW,249,11.0,19.0,-999,-99.99,,,-99.99,,2013-03-14 21:53:00,
2013-03-14 16:04:00,39.0,-99.9,-100.00,West,265,12.0,18.0,-999,-99.99,,,-99.99,,2013-03-14 22:04:00,
2013-03-14 16:13:00,39.0,-99.9,-100.00,West,265,12.0,18.0,-999,-99.99,,,-99.99,,2013-03-14 22:13:00,
2013-03-14 16:23:00,35.0,-99.9,-100.00,WNW,285,13.0,21.0,-999,-99.99,,,-99.99,,2013-03-14 22:23:00,
2013-03-14 16:33:00,35.0,-99.9,-100.00,WNW,291,9.0,16.0,-999,-99.99,,,-99.99,,2013-03-14 22:33:00,
2013-03-14 16:42:00,35.0,-99.9,-100.00,WNW,291,9.0,16.0,-999,-99.99,,,-99.99,,2013-03-14 22:42:00,
2013-03-14 16:53:00,34.0,-99.9,-100.00,WNW,292,11.0,22.0,-999,-99.99,,,-99.99,,2013-03-14 22:53:00,
2013-03-14 17:03:00,34.0,-99.9,-100.00,WNW,302,11.0,21.0,-999,-99.99,,,-99.99,,2013-03-14 23:03:00,
2013-03-14 17:12:00,34.0,-99.9,-100.00,WNW,302,11.0,21.0,-999,-99.99,,,-99.99,,2013-03-14 23:12:00,
2013-03-14 17:23:00,34.0,-99.9,-100.00,West,279,16.0,22.0,-999,-99.99,,,-99.99,,2013-03-14 23:23:00,
2013-03-14 17:33:00,34.0,-99.9,-100.00,WSW,256,11.0,16.0,-999,-99.99,,,-99.99,,2013-03-14 23:33:00,
2013-03-14 17:43:00,34.0,-99.9,-100.00,WSW,256,11.0,16.0,-999,-99.99,,,-99.99,,2013-03-14 23:43:00,
2013-03-14 17:54:00,34.0,-99.9,-100.00,West,262,12.0,18.0,-999,-99.99,,,-99.99,,2013-03-14 23:54:00,
2013-03-14 18:02:00,34.0,-99.9,-100.00,West,270,13.0,18.0,-999,-99.99,,,-99.99,,2013-03-15 00:02:00,
2013-03-14 18:12:00,34.0,-99.9,-100.00,West,270,13.0,18.0,-999,-99.99,,,-99.99,,2013-03-15 00:12:00,
2013-03-14 18:23:00,33.0,-99.9,-100.00,West,276,15.0,24.0,-999,-99.99,,,-99.99,,2013-03-15 00:23:00,
2013-03-14 18:33:00,33.0,-99.9,-100.00,West,276,17.0,22.0,-999,-99.99,,,-99.99,,2013-03-15 00:33:00,
2013-03-14 18:43:00,33.0,-99.9,-100.00,West,276,17.0,22.0,-999,-99.99,,,-99.99,,2013-03-15 00:43:00,
2013-03-14 18:53:00,32.0,-99.9,-100.00,West,271,15.0,24.0,-999,-99.99,,,-99.99,,2013-03-15 00:53:00,
2013-03-14 19:03:00,32.0,-99.9,-100.00,West,264,13.0,21.0,-999,-99.99,,,-99.99,,2013-03-15 01:03:00,
2013-03-14 19:12:00,32.0,-99.9,-100.00,West,264,13.0,21.0,-999,-99.99,,,-99.99,,2013-03-15 01:12:00,
2013-03-14 19:23:00,32.0,-99.9,-100.00,WSW,251,13.0,24.0,-999,-99.99,,,-99.99,,2013-03-15 01:23:00,
2013-03-14 19:33:00,32.0,-99.9,-100.00,West,261,16.0,22.0,-999,-99.99,,,-99.99,,2013-03-15 01:33:00,
2013-03-14 19:43:00,32.0,-99.9,-100.00,West,261,16.0,22.0,-999,-99.99,,,-99.99,,2013-03-15 01:43:00,
2013-03-14 19:52:00,32.0,-99.9,-100.00,West,260,19.0,25.0,-999,-99.99,,,-99.99,,2013-03-15 01:52:00,
2013-03-14 20:03:00,31.0,-99.9,-100.00,West,264,19.0,26.0,-999,-99.99,,,-99.99,,2013-03-15 02:03:00,
2013-03-14 20:12:00,31.0,-99.9,-100.00,West,264,19.0,26.0,-999,-99.99,,,-99.99,,2013-03-15 02:12:00,
2013-03-14 20:22:00,32.0,-99.9,-100.00,West,267,23.0,33.0,-999,-99.99,,,-99.99,,2013-03-15 02:22:00,
2013-03-14 20:33:00,31.0,-99.9,-100.00,West,278,24.0,38.0,-999,-99.99,,,-99.99,,2013-03-15 02:33:00,
2013-03-14 20:42:00,31.0,-99.9,-100.00,West,278,24.0,38.0,-999,-99.99,,,-99.99,,2013-03-15 02:42:00,
2013-03-14 20:52:00,32.0,-99.9,-100.00,WNW,283,25.0,35.0,-999,-99.99,,,-99.99,,2013-03-15 02:52:00,
2013-03-14 21:02:00,32.0,-99.9,-100.00,West,274,25.0,35.0,-999,-99.99,,,-99.99,,2013-03-15 03:02:00,
2013-03-14 21:13:00,32.0,-99.9,-100.00,West,274,25.0,35.0,-999,-99.99,,,-99.99,,2013-03-15 03:13:00,
2013-03-14 21:22:00,32.0,-99.9,-100.00,West,279,23.0,31.0,-999,-99.99,,,-99.99,,2013-03-15 03:22:00,
2013-03-14 21:33:00,32.0,-99.9,-100.00,West,279,23.0,35.0,-999,-99.99,,,-99.99,,2013-03-15 03:33:00,
2013-03-14 21:43:00,32.0,-99.9,-100.00,West,279,23.0,35.0,-999,-99.99,,,-99.99,,2013-03-15 03:43:00,
2013-03-14 21:53:00,32.0,-99.9,-100.00,West,273,24.0,33.0,-999,-99.99,,,-99.99,,2013-03-15 03:53:00,
2013-03-14 22:03:00,33.0,-99.9,-100.00,West,276,28.0,36.0,-999,-99.99,,,-99.99,,2013-03-15 04:03:00,
2013-03-14 22:13:00,33.0,-99.9,-100.00,West,276,28.0,36.0,-999,-99.99,,,-99.99,,2013-03-15 04:13:00,
2013-03-14 22:23:00,33.0,-99.9,-100.00,West,277,25.0,31.0,-999,-99.99,,,-99.99,,2013-03-15 04:23:00,
2013-03-14 22:33:00,33.0,-99.9,-100.00,West,277,24.0,31.0,-999,-99.99,,,-99.99,,2013-03-15 04:33:00,
2013-03-14 22:43:00,33.0,-99.9,-100.00,West,277,24.0,31.0,-999,-99.99,,,-99.99,,2013-03-15 04:43:00,
2013-03-14 22:53:00,32.0,-99.9,-100.00,West,278,21.0,29.0,-999,-99.99,,,-99.99,,2013-03-15 04:53:00,
2013-03-14 23:03:00,32.0,-99.9,-100.00,West,276,23.0,29.0,-999,-99.99,,,-99.99,,2013-03-15 05:03:00,
2013-03-14 23:12:00,32.0,-99.9,-100.00,West,276,23.0,29.0,-999,-99.99,,,-99.99,,2013-03-15 05:12:00,
2013-03-14 23:23:00,32.0,-99.9,-100.00,West,279,23.0,32.0,-999,-99.99,,,-99.99,,2013-03-15 05:23:00,
2013-03-14 23:32:00,33.0,-99.9,-100.00,West,278,25.0,33.0,-999,-99.99,,,-99.99,,2013-03-15 05:32:00,
2013-03-14 23:42:00,33.0,-99.9,-100.00,West,278,25.0,33.0,-999,-99.99,,,-99.99,,2013-03-15 05:42:00,
2013-03-14 23:53:00,32.0,-99.9,-100.00,West,280,24.0,33.0,-999,-99.99,,,-99.99,,2013-03-15 05:53:00,